2017-071T

Last updated on Wed Jan 17 2018 00:19:53 GMT+0000 (Greenwich Mean Time)

1 43054U 17071T 18016.74537405 .00004040 00000-0 11542-3 0 9997 2 43054 51.6399 58.5821 0000619 27.3806 332.7211 15.38337306 6264
UTC large
Height (km)
Speed (km/s)
/
Latitude / Longitude
Inclination (degrees)
Orbital Period (minutes)
Azimuth
Elevation
Range (km)
Doppler Factor

Next 0 passes for location: London (51.5072 / 0.1276)

Sorry there are no passes over London.